Regional Weather Roundup
Issued by NWS

Home | Current Version | Previous Version | Graphics & Text | Print | Product List | Glossary On
Versions: 1 2 3 4 5 6 7 8 9 10 11 12 13 14 15 16 17 18 19 20 21 22 23 24 25 26 27 28 29 30 31 32 33 34 35 36 37 38 39 40 41 42 43 44 45 46 47 48 49 50
000
ASUS43 KDMX 222007
RWRIA

WEATHER ROUNDUP FOR IOWA
NATIONAL WEATHER SERVICE DES MOINES IA
300 PM CDT TUE JUL 22 2014

NOTE: "FAIR" INDICATES FEW OR NO CLOUDS BELOW 12,000 FEET WITH NO
SIGNIFICANT WEATHER AND/OR OBSTRUCTIONS TO VISIBILITY.

* - THESE STATIONS ARE NOT NWS STATIONS...THUS NOT UNDER NWS
QUALITY CONTROL.  THEY ALSO DO NOT REPORT WEATHER SUCH
AS PRECIPITATION OR FOG.

IAZ001>003-012>014-020>022-031>034-043>046-222100-
   NORTHWEST IOWA

CITY           SKY/WX    TMP DP  RH WIND       PRES   REMARKS
CARROLL *      SUNNY     84  70  61 NE9       30.06S HX  88
CHEROKEE *     PTSUNNY   82  68  61 N12G20    30.11R HX  85
DENISON *      SUNNY     84  72  65 N10       30.05R HX  89
LE MARS *      MOSUNNY   82  68  61 N9G15     30.14R HX  85
ORANGE CITY *  MOSUNNY   82  64  54 N12       30.13R HX  84
SHELDON *      SUNNY     81  66  61 N15       30.12R HX  83
SIOUX CITY     MOSUNNY   85  67  54 N12G18    30.12R HX  87
SPENCER        PTSUNNY   83  65  54 N9G18     30.11R HX  85
STORM LAKE *   SUNNY     82  72  69 N14       30.11R HX  87
$$

IAZ055>058-069>071-079>083-090>094-222100-
   SOUTHWEST IOWA

CITY           SKY/WX    TMP DP  RH WIND       PRES   REMARKS
ATLANTIC *     SUNNY     86  75  70 N9        30.03F HX  95
AUDUBON *      SUNNY     90  77  66 N9        30.07R HX 102
CLARINDA *     MOSUNNY   91  79  66 CALM      30.03S HX 107
COUNCIL BLFS * SUNNY     88  73  62 N12G17    30.04R HX  96
CRESTON *      PTSUNNY   91  79  66 NW8       30.03S HX 107
HARLAN  *      SUNNY     84  73  70 N8        30.08S HX  91
LAMONI         PTSUNNY   89  77  67 SW6       30.01S HX 101
RED OAK *      MOSUNNY   91  79  66 N16       30.02S HX 107
SHENANDOAH *   MOSUNNY   91  79  66 NE6       30.02S HX 107
$$

IAZ047>049-059>061-072>074-084-222100-
   CENTRAL IOWA

CITY           SKY/WX    TMP DP  RH WIND       PRES   REMARKS
AMES           PTSUNNY   87  72  60 NW12      30.02R HX  93
ANKENY *       PTSUNNY   90  73  58 NW14G22   30.02R HX  98
CHARITON *     SUNNY     90  79  70 S9        30.00S HX 105
DES MOINES     CLOUDY    90  77  65 N15       30.01R HX 103
GRINNELL*      CLOUDY    82  75  78 W8        30.01S HX  89
KNOXVILLE *    MOSUNNY   90  77  66 NW8       29.99R HX 102
MARSHALLTOWN   PTSUNNY   91  77  63 N9        29.98R HX 104
PELLA *        CLOUDY    88  79  74 NW7       30.01R HX 102
PERRY *          N/A     86  72  62 N9        30.04S HX  92
$$

IAZ004>006-015-016-023>025-035-036-222100-
   NORTH CENTRAL IOWA

CITY           SKY/WX    TMP DP  RH WIND       PRES   REMARKS
ALGONA *       SUNNY     81  68  65 N12G17    30.07R HX  83
CLARION *      SUNNY     86  68  54 N12       30.04R HX  89
ESTHERVILLE    MOSUNNY   80  65  59 N13       30.09R HX  82
FORT DODGE *   MOSUNNY   81  68  65 N6        30.06R HX  83
MASON CITY     SUNNY     86  68  54 N17       30.05S HX  89
FOREST CITY *  SUNNY     82  66  57 NE12G24   30.04F HX  85
IOWA FALLS *     N/A     86  68  54 NW10      30.03S HX  89
$$

IAZ007>011-017>019-026>030-037>042-050>054-066-222100-
   NORTHEAST IOWA

CITY           SKY/WX    TMP DP  RH WIND       PRES   REMARKS
CEDAR RAPIDS   CLOUDY    86  77  74 NW12      29.96S HX  97
CHARLES CITY * SUNNY     86  70  58 NW14      30.02R HX  90
DECORAH *      SUNNY     86  72  62 NW13      29.98R HX  92
DUBUQUE        SUNNY     85  77  77 W16       29.97F HX  95
MONTICELLO *   SUNNY     84  79  84 CALM      29.94F HX  96
OELWEIN *      MOSUNNY   90  75  62 NW8G14    29.99S HX 100
WATERLOO       MOSUNNY   92  74  55 NW10      29.97S HX 101
$$

IAZ064-065-067-068-078-222100-
   EAST CENTRAL IOWA

CITY           SKY/WX    TMP DP  RH WIND       PRES   REMARKS
DAVENPORT      MOSUNNY   87  77  72 W9G20     29.98R HX  99
IOWA CITY      CLOUDY    84  79  85 VRB3      29.93F HX  96
MT. PLEASANT * PTSUNNY   86  75  70 W10G18    29.99R HX  95
MUSCATINE *    MOSUNNY   88  77  70 NW12G17   29.97R HX 100
QUAD CITIES    PTSUNNY   88  76  67 W8        29.97R HX  99
$$

IAZ062-063-075>077-085>089-095>099-222100-
   SOUTHEAST IOWA

CITY           SKY/WX    TMP DP  RH WIND       PRES   REMARKS
BURLINGTON     PTSUNNY   85  76  74 S9        29.98R HX  94
FAIRFIELD *    MOSUNNY   84  77  79 SW6       29.97F HX  94
FORT MADISON * MOSUNNY   88  81  79 CALM      29.98R HX 105
KEOKUK *       SUNNY     86  79  79 SW12G17   29.95F HX  99
OSKALOOSA *      N/A     88  79  74 SW9       29.98S HX 102
CENTERVILLE *  SUNNY     90  79  70 W6        30.02R HX 105
OTTUMWA        PTSUNNY   86  77  74 W12       29.98F HX  97
WASHINGTON *   SUNNY     82  79  89 SW6       29.97F HX  93
$$

ABBREVIATIONS USED IN REMARKS
   TC - TEMPERATURES IN CELSIUS
  WCI - WIND CHILL INDEX
   HX - HEAT INDEX
  VSB - VISIBILITY
$$




USA.gov is the U.S. government's official web portal to all federal, state and local government web resources and services.